Location: Cambridge (historical)
(38.6883°N, 119.0140°W)
Time: 17:29:47
(UTC+00:00)

Cosmos 2026 Rocket - Pass Details

Date: 29 October 2020
Orbit: 939 x 1001 km, 82.9° (Epoch: 22 November)

Event Time Altitude Azimuth Distance (km) Brightness Sun altitude
Rises 12:58:10 0° 193° (SSW) 3,702 6.9 -16.6°
Reaches altitude 10° 13:00:42 10° 196° (SSW) 2,760 6.3 -16.1°
Maximum altitude 13:07:01 67° 278° (W) 1,079 4.0 -14.8°
Drops below altitude 10° 13:13:22 10° 1° (N) 2,775 6.3 -13.6°
Sets 13:15:56 0° 5° (N) 3,724 7.0 -13.1°
